Location: Vancouver
(49.2500°N, 123.1330°W)
Time: 20:21:27
(UTC-07:00)

YAOGAN 6 - Visible Passes

Search period start: 29 April 2016 00:00
Search period end: 09 May 2016 00:00
Orbit: 471 x 511 km, 97.2° (Epoch: 29 April)

Date Brightness Start Highest point End Pass type
(mag) Time Alt. Az. Time Alt. Az. Time Alt. Az.
29 Apr 2.6 22:19:14 26° S 22:21:06 78° WSW 22:24:44 10° NNW visible
30 Apr 2.7 21:56:42 21° SE 21:58:54 56° ENE 22:02:27 10° N visible
30 Apr 5.3 23:31:20 10° WSW 23:32:53 12° W 23:34:27 10° WNW visible
01 May 3.6 21:34:09 14° SE 21:36:44 32° ENE 21:40:00 10° N visible
01 May 4.7 23:08:39 15° SW 23:10:25 21° W 23:13:14 10° NW visible
02 May 4.3 21:12:02 10° ESE 21:14:40 19° ENE 21:17:19 10° NNE visible
02 May 3.8 22:46:06 20° SSW 22:48:02 36° W 22:51:26 10° NNW visible
03 May 2.8 22:23:34 22° S 22:25:43 68° WSW 22:29:22 10° NNW visible
04 May 2.6 22:01:01 19° SSE 22:03:29 65° ENE 22:07:07 10° N visible
04 May 5.4 23:36:30 10° WSW 23:37:33 11° W 23:38:35 10° WNW visible
05 May 3.4 21:38:28 13° SE 21:41:19 36° ENE 21:44:41 10° N visible
05 May 4.9 23:12:58 12° SW 23:15:04 19° W 23:17:43 10° NW visible
06 May 4.2 21:16:23 10° ESE 21:19:13 22° ENE 21:22:04 10° NNE visible
06 May 4.0 22:50:25 17° SSW 22:52:39 32° W 22:55:59 10° NNW visible
07 May 3.0 22:27:51 19° S 22:30:19 59° W 22:33:58 10° NNW visible
08 May 2.6 22:05:18 17° SSE 22:08:03 75° ENE 22:11:44 10° N visible
